COSMOS 2513

Last updated on Jan. 20, 2021, 6:22 a.m. UTC

1 41121U 15075A   21019.94910157 -.00000133  00000-0  00000-0 0  9994
2 41121   0.0575 113.1370 0002340 179.3368 248.9770  1.00272702 18737
UTC
Height (km)
Latitude
Longitude
Inclination
Orbital Period
UTC large
Height (km)
Speed (km/s)
/
Latitude / Longitude
Inclination (degrees)
Orbital Period (minutes)
Azimuth
Elevation
Range (km)
Doppler Factor
iOS Compass Heading
iOS Angle

Next 30 passes for location: Hong Kong

Rise time Rise Azimuth (degrees) Set time Set Azimuth (degrees) Duration Max altitude (degrees)

No matching passes for this satellites